MDT,Max TemperatureF,Mean TemperatureF,Min TemperatureF,Max Dew PointF,MeanDew PointF,Min DewpointF,Max Humidity, Mean Humidity, Min Humidity, Max Sea Level PressureIn, Mean Sea Level PressureIn, Min Sea Level PressureIn, Max VisibilityMiles, Mean VisibilityMiles, Min VisibilityMiles, Max Wind SpeedMPH, Mean Wind SpeedMPH, Max Gust SpeedMPH,PrecipitationIn, CloudCover, Events, WindDirDegrees
2013-3-1,52,38,24,22,16,11,68,44,20,30.32,30.26,30.19,,,,31,15,47,0.00,,,346
2013-3-2,64,48,32,24,22,20,64,42,19,30.27,30.17,30.01,,,,21,10,29,0.00,,,295
2013-3-3,76,55,34,25,19,8,56,32,8,29.97,29.69,29.52,,,,22,8,29,0.00,,,300
2013-3-4,54,38,21,30,25,19,92,64,35,30.22,29.80,29.53,,,,38,15,45,0.05,,,14
2013-3-5,47,29,10,18,14,7,92,62,31,30.43,30.31,30.21,,,,21,11,24,0.00,,,232
2013-3-6,65,47,28,24,22,16,69,44,19,30.18,29.95,29.81,,,,31,20,38,0.00,,,213
2013-3-7,78,55,32,26,17,0,54,30,5,29.84,29.78,29.72,,,,23,11,26,0.00,,,260
2013-3-8,75,57,38,37,27,18,54,33,12,29.81,29.67,29.54,,,,32,14,52,0.00,,,230
2013-3-9,55,42,29,38,33,29,96,69,41,29.85,29.57,29.44,,,,48,24,58,0.02,,,314
2013-3-10,33,27,20,25,18,14,92,73,54,30.14,30.07,29.89,,,,46,23,55,0.00,,,349
2013-3-11,58,41,23,32,23,16,89,57,24,30.08,29.97,29.85,,,,23,11,28,0.00,,,358
2013-3-12,49,39,28,30,25,21,92,63,34,30.30,30.23,30.09,,,,18,8,21,0.00,,,42
2013-3-13,66,47,27,31,27,24,85,54,22,30.27,30.20,30.14,,,,14,7,17,0.00,,,212
2013-3-14,73,54,35,31,26,20,75,45,14,30.18,30.12,30.04,,,,22,9,28,0.00,,,332
2013-3-15,82,61,40,29,23,15,55,32,9,30.03,29.83,29.66,,,,21,9,25,0.00,,,292
2013-3-16,54,44,34,33,26,22,73,51,29,29.93,29.83,29.65,,,,23,12,28,0.00,,,72
2013-3-17,64,45,26,42,30,23,85,59,32,29.85,29.66,29.45,,,,37,11,46,0.02,,,166
2013-3-18,53,37,21,30,14,7,84,51,17,29.97,29.89,29.72,,,,32,10,40,0.00,,,116
2013-3-19,52,36,20,18,12,6,58,37,16,30.27,30.05,29.88,,,,28,10,33,0.00,,,11
2013-3-20,58,36,14,29,18,8,62,42,22,30.33,30.06,29.64,,,,36,13,41,0.00,,,233
2013-3-21,64,50,35,31,27,21,64,42,20,29.74,29.55,29.41,,,,23,11,29,0.00,,,33
2013-3-22,54,40,26,32,27,19,100,63,26,29.86,29.73,29.59,,,,26,12,32,0.00,,,163
2013-3-23,39,28,17,30,24,14,100,88,75,30.19,29.85,29.60,,,,40,17,48,0.08,,,34
2013-3-24,33,22,10,19,13,4,80,63,45,30.25,30.20,30.13,,,,18,8,22,0.00,,,355
2013-3-25,39,26,13,16,12,9,88,59,29,30.37,30.32,30.27,,,,20,7,28,0.00,,,347
2013-3-26,63,39,15,19,15,10,84,51,17,30.35,30.07,29.81,,,,28,15,36,0.00,,,220
2013-3-27,63,48,33,25,23,16,69,45,20,30.09,29.94,29.80,,,,23,13,31,0.00,,,33
2013-3-28,67,46,25,36,31,21,81,55,28,30.09,30.03,29.98,,,,13,4,17,0.00,,,136
2013-3-29,71,51,31,44,37,31,89,59,28,30.08,30.00,29.91,,,,14,6,21,0.00,,,221
2013-3-30,74,57,39,41,32,21,92,53,14,30.03,29.94,29.83,,,,39,10,47,0.00,,,352
2013-3-31,68,51,34,43,32,25,96,59,22,30.07,29.96,29.85,,,,25,11,31,0.00,,,256